SL-14 R/B (15945 NORAD) Tracking and Keplerian Element Data

This shows tracking and keplerian element data for the satellite.

Feedback or suggestion? Click here.




ElementValue
Catalog15945
NameSL-14 R/B
Epoch Orbit7706
Epoch Day12.5888922
Epoch Year2024
RAAN44.2649
Inclination82.5261
Eccentricity0.0017736
Argument of Perigee278.1869
Mean Anonmoly81.7335
Mean Motion14.84927014
Decay Rate7.84E-06
L11 15945U 85069B 24012.58889220 .00000784 00000+0 89132-4 0 9998
L22 15945 82.5261 44.2649 0017736 278.1869 81.7335 14.84927014 77061



Live tracking and technical data element details for SL-14 R/B (NORAD 15945). SL-14 R/B can be tracked NOW for your location showing map with azimuth and elevation plus other details from your city location.







IsCatalogInMostPopularTable: catalog: 15945, numindb: 293
Update: records affected: 1



GetName: 15945 SL-14 R/B

Hit Count: updated at: Fri, 19 Apr 2024 12:33:44 GMT